GSAT0232 (GALILEO 32)

Last updated on Sun Apr 12 2026 00:02:39 GMT+0000 (Coordinated Universal Time)

1 61182U 24167A 26100.24747089 .00000003 00000+0 00000+0 0 9999 2 61182 55.2060 223.1763 0004323 208.8028 183.5839 1.70474557 9727
UTC large
Height (km)
Speed (km/s)
/
Latitude / Longitude
Inclination (degrees)
Orbital Period (minutes)
Azimuth
Elevation
Range (km)
Doppler Factor

Next 0 passes for location: London (51.5072 / 0.1276)

Sorry there are no passes over London.
GSAT0232 (GALILEO 32)